M I D A S
Marine Information and Data Acquisition System
Tripno 1790 of the Zeeleeuw from 2009-09-25 08:00:00 to 2009-09-25 17:00:00
Back to CruiseResearch ActivitiesStationsMapUnderway DataData graphs

EquipmentUnitsComment
TimeDGPSUTC
LatitudeDGPSDM.mWGS84
LongitudeDGPSDM.mWGS84
TemperatureSBE03/SBE38deg celciusITS90
ConductivitySBE21S/mITS90
SalinitySBE21 Practical Salinity Units
ChlorophylAChelsea fluorimeterg/lCalibrated in Aceton
Missing or incorrect values are displayed as -999
Sea surface data collected by the RV Zeeleeuw from 2009-09-25 08:00:00 to 2009-09-25 17:00:00
                                                                                    Next 1000 lines
Time Latitude Longitude Temperature Conductivity Salinity ChlorophylA
2009-09-25 08:00:20 51°23.739 2°29.793 -999 -999 -999 -999
2009-09-25 08:00:30 51°23.74 2°29.795 -999 -999 -999 -999
2009-09-25 08:00:40 51°23.741 2°29.8 -999 -999 -999 -999
2009-09-25 08:00:50 51°23.74 2°29.806 -999 -999 -999 -999
2009-09-25 08:01:00 51°23.74 2°29.811 -999 -999 -999 -999
2009-09-25 08:01:10 51°23.739 2°29.816 -999 -999 -999 -999
2009-09-25 08:01:20 51°23.739 2°29.821 -999 -999 -999 -999
2009-09-25 08:01:30 51°23.738 2°29.826 -999 -999 -999 -999
2009-09-25 08:01:40 51°23.738 2°29.831 -999 -999 -999 -999
2009-09-25 08:01:50 51°23.737 2°29.835 -999 -999 -999 -999
2009-09-25 08:02:00 51°23.736 2°29.84 -999 -999 -999 -999
2009-09-25 08:02:10 51°23.735 2°29.844 -999 -999 -999 -999
2009-09-25 08:02:20 51°23.734 2°29.849 -999 -999 -999 -999
2009-09-25 08:02:30 51°23.734 2°29.853 -999 -999 -999 -999
2009-09-25 08:02:40 51°23.734 2°29.856 -999 -999 -999 -999
2009-09-25 08:02:50 51°23.735 2°29.858 -999 -999 -999 -999
2009-09-25 08:03:00 51°23.737 2°29.859 -999 -999 -999 -999
2009-09-25 08:03:10 51°23.74 2°29.859 -999 -999 -999 -999
2009-09-25 08:03:20 51°23.743 2°29.858 -999 -999 -999 -999
2009-09-25 08:03:30 51°23.746 2°29.856 -999 -999 -999 -999
2009-09-25 08:03:40 51°23.749 2°29.854 -999 -999 -999 -999
2009-09-25 08:03:50 51°23.752 2°29.853 -999 -999 -999 -999
2009-09-25 08:04:00 51°23.756 2°29.852 -999 -999 -999 -999
2009-09-25 08:04:10 51°23.758 2°29.852 -999 -999 -999 -999
2009-09-25 08:04:20 51°23.759 2°29.856 -999 -999 -999 -999
2009-09-25 08:04:30 51°23.759 2°29.862 -999 -999 -999 -999
2009-09-25 08:04:40 51°23.759 2°29.867 -999 -999 -999 -999
2009-09-25 08:04:50 51°23.759 2°29.871 -999 -999 -999 -999
2009-09-25 08:05:00 51°23.761 2°29.873 -999 -999 -999 -999
2009-09-25 08:05:10 51°23.763 2°29.871 -999 -999 -999 -999
2009-09-25 08:05:20 51°23.766 2°29.868 -999 -999 -999 -999
2009-09-25 08:05:30 51°23.769 2°29.863 -999 -999 -999 -999
2009-09-25 08:05:40 51°23.771 2°29.857 -999 -999 -999 -999
2009-09-25 08:05:50 51°23.773 2°29.85 -999 -999 -999 -999
2009-09-25 08:06:00 51°23.774 2°29.843 -999 -999 -999 -999
2009-09-25 08:06:10 51°23.775 2°29.835 -999 -999 -999 -999
2009-09-25 08:06:20 51°23.774 2°29.827 -999 -999 -999 -999
2009-09-25 08:06:30 51°23.773 2°29.82 -999 -999 -999 -999
2009-09-25 08:06:40 51°23.772 2°29.814 -999 -999 -999 -999
2009-09-25 08:06:50 51°23.771 2°29.808 -999 -999 -999 -999
2009-09-25 08:07:00 51°23.769 2°29.803 -999 -999 -999 -999
2009-09-25 08:07:10 51°23.768 2°29.799 -999 -999 -999 -999
2009-09-25 08:07:20 51°23.767 2°29.795 -999 -999 -999 -999
2009-09-25 08:07:30 51°23.765 2°29.792 -999 -999 -999 -999
2009-09-25 08:07:40 51°23.764 2°29.789 -999 -999 -999 -999
2009-09-25 08:07:50 51°23.763 2°29.787 -999 -999 -999 -999
2009-09-25 08:08:00 51°23.761 2°29.785 -999 -999 -999 -999
2009-09-25 08:08:10 51°23.76 2°29.784 -999 -999 -999 -999
2009-09-25 08:08:20 51°23.758 2°29.783 -999 -999 -999 -999
2009-09-25 08:08:30 51°23.757 2°29.782 -999 -999 -999 -999
2009-09-25 08:08:40 51°23.755 2°29.783 -999 -999 -999 -999
2009-09-25 08:08:50 51°23.754 2°29.783 -999 -999 -999 -999
2009-09-25 08:09:00 51°23.754 2°29.784 -999 -999 -999 -999
2009-09-25 08:09:10 51°23.753 2°29.785 -999 -999 -999 -999
2009-09-25 08:09:20 51°23.753 2°29.786 -999 -999 -999 -999
2009-09-25 08:09:30 51°23.752 2°29.788 -999 -999 -999 -999
2009-09-25 08:09:40 51°23.752 2°29.79 -999 -999 -999 -999
2009-09-25 08:09:50 51°23.752 2°29.792 -999 -999 -999 -999
2009-09-25 08:10:00 51°23.751 2°29.794 -999 -999 -999 -999
2009-09-25 08:10:10 51°23.751 2°29.796 -999 -999 -999 -999
2009-09-25 08:10:20 51°23.75 2°29.799 -999 -999 -999 -999
2009-09-25 08:10:30 51°23.749 2°29.802 -999 -999 -999 -999
2009-09-25 08:10:40 51°23.748 2°29.804 -999 -999 -999 -999
2009-09-25 08:10:50 51°23.747 2°29.807 -999 -999 -999 -999
2009-09-25 08:11:00 51°23.747 2°29.81 -999 -999 -999 -999
2009-09-25 08:11:10 51°23.746 2°29.813 -999 -999 -999 -999
2009-09-25 08:11:20 51°23.745 2°29.816 -999 -999 -999 -999
2009-09-25 08:11:30 51°23.744 2°29.819 -999 -999 -999 -999
2009-09-25 08:11:40 51°23.743 2°29.821 -999 -999 -999 -999
2009-09-25 08:11:50 51°23.743 2°29.824 -999 -999 -999 -999
2009-09-25 08:12:00 51°23.742 2°29.827 -999 -999 -999 -999
2009-09-25 08:12:10 51°23.742 2°29.829 -999 -999 -999 -999
2009-09-25 08:12:20 51°23.742 2°29.832 -999 -999 -999 -999
2009-09-25 08:12:30 51°23.742 2°29.835 -999 -999 -999 -999
2009-09-25 08:12:40 51°23.741 2°29.837 -999 -999 -999 -999
2009-09-25 08:12:50 51°23.742 2°29.84 -999 -999 -999 -999
2009-09-25 08:13:00 51°23.742 2°29.842 -999 -999 -999 -999
2009-09-25 08:13:10 51°23.742 2°29.844 -999 -999 -999 -999
2009-09-25 08:13:20 51°23.742 2°29.846 -999 -999 -999 -999
2009-09-25 08:13:30 51°23.742 2°29.849 -999 -999 -999 -999
2009-09-25 08:13:40 51°23.742 2°29.851 -999 -999 -999 -999
2009-09-25 08:13:50 51°23.742 2°29.853 -999 -999 -999 -999
2009-09-25 08:14:00 51°23.742 2°29.855 -999 -999 -999 -999
2009-09-25 08:14:10 51°23.743 2°29.857 -999 -999 -999 -999
2009-09-25 08:14:20 51°23.743 2°29.859 -999 -999 -999 -999
2009-09-25 08:14:30 51°23.743 2°29.861 -999 -999 -999 -999
2009-09-25 08:14:40 51°23.743 2°29.863 -999 -999 -999 -999
2009-09-25 08:14:50 51°23.744 2°29.865 -999 -999 -999 -999
2009-09-25 08:15:00 51°23.745 2°29.867 -999 -999 -999 -999
2009-09-25 08:15:10 51°23.745 2°29.868 -999 -999 -999 -999
2009-09-25 08:15:20 51°23.746 2°29.87 -999 -999 -999 -999
2009-09-25 08:15:30 51°23.747 2°29.872 -999 -999 -999 -999
2009-09-25 08:15:40 51°23.747 2°29.873 -999 -999 -999 -999
2009-09-25 08:15:50 51°23.747 2°29.875 -999 -999 -999 -999
2009-09-25 08:16:00 51°23.748 2°29.877 -999 -999 -999 -999
2009-09-25 08:16:10 51°23.748 2°29.879 -999 -999 -999 -999
2009-09-25 08:16:20 51°23.748 2°29.881 -999 -999 -999 -999
2009-09-25 08:16:30 51°23.748 2°29.883 -999 -999 -999 -999
2009-09-25 08:16:40 51°23.749 2°29.885 -999 -999 -999 -999
2009-09-25 08:16:50 51°23.748 2°29.888 -999 -999 -999 -999
2009-09-25 08:17:00 51°23.745 2°29.891 -999 -999 -999 -999
2009-09-25 08:17:10 51°23.741 2°29.893 -999 -999 -999 -999
2009-09-25 08:17:20 51°23.737 2°29.894 -999 -999 -999 -999
2009-09-25 08:17:30 51°23.732 2°29.893 -999 -999 -999 -999
2009-09-25 08:17:40 51°23.727 2°29.891 -999 -999 -999 -999
2009-09-25 08:17:50 51°23.722 2°29.887 -999 -999 -999 -999
2009-09-25 08:18:00 51°23.718 2°29.881 -999 -999 -999 -999
2009-09-25 08:18:10 51°23.715 2°29.874 -999 -999 -999 -999
2009-09-25 08:18:20 51°23.712 2°29.865 -999 -999 -999 -999
2009-09-25 08:18:30 51°23.711 2°29.856 -999 -999 -999 -999
2009-09-25 08:18:40 51°23.71 2°29.85 -999 -999 -999 -999
2009-09-25 08:18:50 51°23.71 2°29.845 -999 -999 -999 -999
2009-09-25 08:19:00 51°23.711 2°29.843 -999 -999 -999 -999
2009-09-25 08:19:10 51°23.712 2°29.843 -999 -999 -999 -999
2009-09-25 08:19:20 51°23.713 2°29.843 -999 -999 -999 -999
2009-09-25 08:19:30 51°23.714 2°29.843 -999 -999 -999 -999
2009-09-25 08:19:40 51°23.715 2°29.843 -999 -999 -999 -999
2009-09-25 08:19:50 51°23.717 2°29.842 -999 -999 -999 -999
2009-09-25 08:20:00 51°23.718 2°29.84 -999 -999 -999 -999
2009-09-25 08:20:10 51°23.721 2°29.836 -999 -999 -999 -999
2009-09-25 08:20:20 51°23.723 2°29.832 -999 -999 -999 -999
2009-09-25 08:20:30 51°23.726 2°29.828 -999 -999 -999 -999
2009-09-25 08:20:40 51°23.728 2°29.824 -999 -999 -999 -999
2009-09-25 08:20:50 51°23.732 2°29.819 -999 -999 -999 -999
2009-09-25 08:21:00 51°23.735 2°29.814 -999 -999 -999 -999
2009-09-25 08:21:10 51°23.738 2°29.808 -999 -999 -999 -999
2009-09-25 08:21:20 51°23.741 2°29.804 -999 -999 -999 -999
2009-09-25 08:21:30 51°23.744 2°29.799 -999 -999 -999 -999
2009-09-25 08:21:40 51°23.747 2°29.794 -999 -999 -999 -999
2009-09-25 08:21:50 51°23.75 2°29.79 -999 -999 -999 -999
2009-09-25 08:22:00 51°23.752 2°29.786 -999 -999 -999 -999
2009-09-25 08:22:10 51°23.755 2°29.781 -999 -999 -999 -999
2009-09-25 08:22:20 51°23.757 2°29.777 -999 -999 -999 -999
2009-09-25 08:22:30 51°23.76 2°29.772 -999 -999 -999 -999
2009-09-25 08:22:40 51°23.763 2°29.763 -999 -999 -999 -999
2009-09-25 08:22:50 51°23.766 2°29.754 -999 -999 -999 -999
2009-09-25 08:23:00 51°23.769 2°29.744 -999 -999 -999 -999
2009-09-25 08:23:10 51°23.772 2°29.734 -999 -999 -999 -999
2009-09-25 08:23:20 51°23.775 2°29.724 -999 -999 -999 -999
2009-09-25 08:23:30 51°23.778 2°29.713 -999 -999 -999 -999
2009-09-25 08:23:40 51°23.78 2°29.704 -999 -999 -999 -999
2009-09-25 08:23:50 51°23.783 2°29.695 -999 -999 -999 -999
2009-09-25 08:24:00 51°23.786 2°29.686 -999 -999 -999 -999
2009-09-25 08:24:10 51°23.789 2°29.679 -999 -999 -999 -999
2009-09-25 08:24:20 51°23.791 2°29.672 -999 -999 -999 -999
2009-09-25 08:24:30 51°23.794 2°29.665 -999 -999 -999 -999
2009-09-25 08:24:40 51°23.797 2°29.658 -999 -999 -999 -999
2009-09-25 08:24:50 51°23.8 2°29.65 -999 -999 -999 -999
2009-09-25 08:25:00 51°23.804 2°29.642 -999 -999 -999 -999
2009-09-25 08:25:10 51°23.807 2°29.634 -999 -999 -999 -999
2009-09-25 08:25:20 51°23.81 2°29.626 -999 -999 -999 -999
2009-09-25 08:25:30 51°23.813 2°29.618 -999 -999 -999 -999
2009-09-25 08:25:40 51°23.816 2°29.609 -999 -999 -999 -999
2009-09-25 08:25:50 51°23.818 2°29.6 -999 -999 -999 -999
2009-09-25 08:26:00 51°23.821 2°29.591 -999 -999 -999 -999
2009-09-25 08:26:10 51°23.824 2°29.582 -999 -999 -999 -999
2009-09-25 08:26:20 51°23.826 2°29.572 -999 -999 -999 -999
2009-09-25 08:26:30 51°23.829 2°29.562 -999 -999 -999 -999
2009-09-25 08:26:40 51°23.831 2°29.553 -999 -999 -999 -999
2009-09-25 08:26:50 51°23.833 2°29.543 -999 -999 -999 -999
2009-09-25 08:27:00 51°23.835 2°29.533 -999 -999 -999 -999
2009-09-25 08:27:10 51°23.836 2°29.523 -999 -999 -999 -999
2009-09-25 08:27:20 51°23.836 2°29.511 -999 -999 -999 -999
2009-09-25 08:27:30 51°23.835 2°29.5 -999 -999 -999 -999
2009-09-25 08:27:40 51°23.833 2°29.488 -999 -999 -999 -999
2009-09-25 08:27:50 51°23.829 2°29.478 -999 -999 -999 -999
2009-09-25 08:28:00 51°23.825 2°29.471 -999 -999 -999 -999
2009-09-25 08:28:10 51°23.821 2°29.465 -999 -999 -999 -999
2009-09-25 08:28:20 51°23.816 2°29.459 -999 -999 -999 -999
2009-09-25 08:28:30 51°23.812 2°29.456 -999 -999 -999 -999
2009-09-25 08:28:40 51°23.807 2°29.454 -999 -999 -999 -999
2009-09-25 08:28:50 51°23.803 2°29.453 -999 -999 -999 -999
2009-09-25 08:29:00 51°23.799 2°29.454 -999 -999 -999 -999
2009-09-25 08:29:10 51°23.795 2°29.455 -999 -999 -999 -999
2009-09-25 08:29:20 51°23.792 2°29.457 -999 -999 -999 -999
2009-09-25 08:29:30 51°23.789 2°29.46 -999 -999 -999 -999
2009-09-25 08:29:40 51°23.786 2°29.464 -999 -999 -999 -999
2009-09-25 08:29:50 51°23.784 2°29.468 -999 -999 -999 -999
2009-09-25 08:30:00 51°23.782 2°29.473 -999 -999 -999 -999
2009-09-25 08:30:10 51°23.781 2°29.477 -999 -999 -999 -999
2009-09-25 08:30:20 51°23.78 2°29.482 -999 -999 -999 -999
2009-09-25 08:30:30 51°23.779 2°29.486 -999 -999 -999 -999
2009-09-25 08:30:40 51°23.779 2°29.491 -999 -999 -999 -999
2009-09-25 08:30:50 51°23.779 2°29.495 -999 -999 -999 -999
2009-09-25 08:31:00 51°23.779 2°29.499 -999 -999 -999 -999
2009-09-25 08:31:10 51°23.778 2°29.503 -999 -999 -999 -999
2009-09-25 08:31:20 51°23.778 2°29.507 -999 -999 -999 -999
2009-09-25 08:31:30 51°23.778 2°29.51 -999 -999 -999 -999
2009-09-25 08:31:40 51°23.778 2°29.513 -999 -999 -999 -999
2009-09-25 08:31:50 51°23.779 2°29.516 -999 -999 -999 -999
2009-09-25 08:32:00 51°23.779 2°29.519 -999 -999 -999 -999
2009-09-25 08:32:10 51°23.779 2°29.522 -999 -999 -999 -999
2009-09-25 08:32:20 51°23.779 2°29.525 -999 -999 -999 -999
2009-09-25 08:32:30 51°23.779 2°29.528 -999 -999 -999 -999
2009-09-25 08:32:40 51°23.779 2°29.53 -999 -999 -999 -999
2009-09-25 08:32:50 51°23.779 2°29.532 -999 -999 -999 -999
2009-09-25 08:33:00 51°23.78 2°29.534 -999 -999 -999 -999
2009-09-25 08:33:10 51°23.78 2°29.536 -999 -999 -999 -999
2009-09-25 08:33:20 51°23.78 2°29.538 -999 -999 -999 -999
2009-09-25 08:33:30 51°23.781 2°29.54 -999 -999 -999 -999
2009-09-25 08:33:40 51°23.781 2°29.542 -999 -999 -999 -999
2009-09-25 08:33:50 51°23.782 2°29.544 -999 -999 -999 -999
2009-09-25 08:34:00 51°23.782 2°29.545 -999 -999 -999 -999
2009-09-25 08:34:10 51°23.783 2°29.546 -999 -999 -999 -999
2009-09-25 08:34:20 51°23.783 2°29.547 -999 -999 -999 -999
2009-09-25 08:34:30 51°23.784 2°29.549 -999 -999 -999 -999
2009-09-25 08:34:40 51°23.784 2°29.55 -999 -999 -999 -999
2009-09-25 08:34:50 51°23.785 2°29.552 -999 -999 -999 -999
2009-09-25 08:35:00 51°23.786 2°29.552 -999 -999 -999 -999
2009-09-25 08:35:10 51°23.786 2°29.553 -999 -999 -999 -999
2009-09-25 08:35:20 51°23.787 2°29.554 -999 -999 -999 -999
2009-09-25 08:35:30 51°23.788 2°29.555 -999 -999 -999 -999
2009-09-25 08:35:40 51°23.789 2°29.556 -999 -999 -999 -999
2009-09-25 08:35:50 51°23.79 2°29.557 -999 -999 -999 -999
2009-09-25 08:36:00 51°23.791 2°29.558 -999 -999 -999 -999
2009-09-25 08:36:10 51°23.792 2°29.558 -999 -999 -999 -999
2009-09-25 08:36:20 51°23.793 2°29.559 -999 -999 -999 -999
2009-09-25 08:36:30 51°23.794 2°29.56 -999 -999 -999 -999
2009-09-25 08:36:40 51°23.795 2°29.561 -999 -999 -999 -999
2009-09-25 08:36:50 51°23.796 2°29.562 -999 -999 -999 -999
2009-09-25 08:37:00 51°23.797 2°29.562 -999 -999 -999 -999
2009-09-25 08:37:10 51°23.798 2°29.563 -999 -999 -999 -999
2009-09-25 08:37:20 51°23.799 2°29.564 -999 -999 -999 -999
2009-09-25 08:37:30 51°23.8 2°29.565 -999 -999 -999 -999
2009-09-25 08:37:40 51°23.801 2°29.565 -999 -999 -999 -999
2009-09-25 08:37:50 51°23.802 2°29.566 -999 -999 -999 -999
2009-09-25 08:38:00 51°23.803 2°29.567 -999 -999 -999 -999
2009-09-25 08:38:10 51°23.805 2°29.568 -999 -999 -999 -999
2009-09-25 08:38:20 51°23.806 2°29.569 -999 -999 -999 -999
2009-09-25 08:38:30 51°23.807 2°29.57 -999 -999 -999 -999
2009-09-25 08:38:40 51°23.808 2°29.571 -999 -999 -999 -999
2009-09-25 08:38:50 51°23.809 2°29.571 -999 -999 -999 -999
2009-09-25 08:39:00 51°23.81 2°29.572 -999 -999 -999 -999
2009-09-25 08:39:10 51°23.811 2°29.573 -999 -999 -999 -999
2009-09-25 08:39:20 51°23.813 2°29.574 -999 -999 -999 -999
2009-09-25 08:39:30 51°23.814 2°29.574 -999 -999 -999 -999
2009-09-25 08:39:40 51°23.815 2°29.576 -999 -999 -999 -999
2009-09-25 08:39:50 51°23.816 2°29.577 -999 -999 -999 -999
2009-09-25 08:40:00 51°23.817 2°29.578 -999 -999 -999 -999
2009-09-25 08:40:10 51°23.818 2°29.578 -999 -999 -999 -999
2009-09-25 08:40:20 51°23.82 2°29.579 -999 -999 -999 -999
2009-09-25 08:40:30 51°23.821 2°29.58 -999 -999 -999 -999
2009-09-25 08:40:40 51°23.822 2°29.581 -999 -999 -999 -999
2009-09-25 08:40:50 51°23.823 2°29.582 -999 -999 -999 -999
2009-09-25 08:41:00 51°23.824 2°29.582 -999 -999 -999 -999
2009-09-25 08:41:10 51°23.825 2°29.583 -999 -999 -999 -999
2009-09-25 08:41:20 51°23.826 2°29.584 -999 -999 -999 -999
2009-09-25 08:41:30 51°23.827 2°29.584 -999 -999 -999 -999
2009-09-25 08:41:40 51°23.828 2°29.585 -999 -999 -999 -999
2009-09-25 08:41:50 51°23.829 2°29.585 -999 -999 -999 -999
2009-09-25 08:42:00 51°23.83 2°29.586 -999 -999 -999 -999
2009-09-25 08:42:10 51°23.831 2°29.587 -999 -999 -999 -999
2009-09-25 08:42:20 51°23.832 2°29.588 -999 -999 -999 -999
2009-09-25 08:42:30 51°23.833 2°29.588 -999 -999 -999 -999
2009-09-25 08:42:40 51°23.834 2°29.589 -999 -999 -999 -999
2009-09-25 08:42:50 51°23.835 2°29.589 -999 -999 -999 -999
2009-09-25 08:43:00 51°23.836 2°29.59 -999 -999 -999 -999
2009-09-25 08:43:10 51°23.837 2°29.591 -999 -999 -999 -999
2009-09-25 08:43:20 51°23.838 2°29.592 -999 -999 -999 -999
2009-09-25 08:43:30 51°23.839 2°29.592 -999 -999 -999 -999
2009-09-25 08:43:40 51°23.84 2°29.593 -999 -999 -999 -999
2009-09-25 08:43:50 51°23.841 2°29.593 -999 -999 -999 -999
2009-09-25 08:44:00 51°23.842 2°29.594 -999 -999 -999 -999
2009-09-25 08:44:10 51°23.843 2°29.595 -999 -999 -999 -999
2009-09-25 08:44:20 51°23.844 2°29.595 -999 -999 -999 -999
2009-09-25 08:44:30 51°23.845 2°29.596 -999 -999 -999 -999
2009-09-25 08:44:40 51°23.846 2°29.597 -999 -999 -999 -999
2009-09-25 08:44:50 51°23.847 2°29.598 -999 -999 -999 -999
2009-09-25 08:45:00 51°23.848 2°29.598 -999 -999 -999 -999
2009-09-25 08:45:10 51°23.849 2°29.599 -999 -999 -999 -999
2009-09-25 08:45:20 51°23.85 2°29.6 -999 -999 -999 -999
2009-09-25 08:45:30 51°23.85 2°29.6 -999 -999 -999 -999
2009-09-25 08:45:40 51°23.851 2°29.601 -999 -999 -999 -999
2009-09-25 08:45:50 51°23.852 2°29.601 -999 -999 -999 -999
2009-09-25 08:46:00 51°23.853 2°29.602 -999 -999 -999 -999
2009-09-25 08:46:10 51°23.854 2°29.602 -999 -999 -999 -999
2009-09-25 08:46:20 51°23.855 2°29.603 -999 -999 -999 -999
2009-09-25 08:46:30 51°23.856 2°29.604 -999 -999 -999 -999
2009-09-25 08:46:40 51°23.857 2°29.604 -999 -999 -999 -999
2009-09-25 08:46:50 51°23.858 2°29.605 -999 -999 -999 -999
2009-09-25 08:47:00 51°23.859 2°29.605 -999 -999 -999 -999
2009-09-25 08:47:10 51°23.86 2°29.606 -999 -999 -999 -999
2009-09-25 08:47:20 51°23.861 2°29.606 -999 -999 -999 -999
2009-09-25 08:47:30 51°23.862 2°29.607 -999 -999 -999 -999
2009-09-25 08:47:40 51°23.862 2°29.607 -999 -999 -999 -999
2009-09-25 08:47:50 51°23.863 2°29.608 -999 -999 -999 -999
2009-09-25 08:48:00 51°23.864 2°29.608 -999 -999 -999 -999
2009-09-25 08:48:10 51°23.865 2°29.609 -999 -999 -999 -999
2009-09-25 08:48:20 51°23.866 2°29.609 -999 -999 -999 -999
2009-09-25 08:48:30 51°23.867 2°29.61 -999 -999 -999 -999
2009-09-25 08:48:40 51°23.868 2°29.61 -999 -999 -999 -999
2009-09-25 08:48:50 51°23.869 2°29.61 -999 -999 -999 -999
2009-09-25 08:49:00 51°23.87 2°29.611 -999 -999 -999 -999
2009-09-25 08:49:10 51°23.871 2°29.611 -999 -999 -999 -999
2009-09-25 08:49:20 51°23.872 2°29.612 -999 -999 -999 -999
2009-09-25 08:49:30 51°23.873 2°29.612 -999 -999 -999 -999
2009-09-25 08:49:40 51°23.874 2°29.612 -999 -999 -999 -999
2009-09-25 08:49:50 51°23.874 2°29.613 -999 -999 -999 -999
2009-09-25 08:50:00 51°23.875 2°29.613 -999 -999 -999 -999
2009-09-25 08:50:10 51°23.876 2°29.613 -999 -999 -999 -999
2009-09-25 08:50:20 51°23.877 2°29.613 -999 -999 -999 -999
2009-09-25 08:50:30 51°23.878 2°29.614 -999 -999 -999 -999
2009-09-25 08:50:40 51°23.879 2°29.614 -999 -999 -999 -999
2009-09-25 08:50:50 51°23.88 2°29.614 -999 -999 -999 -999
2009-09-25 08:51:00 51°23.881 2°29.615 -999 -999 -999 -999
2009-09-25 08:51:10 51°23.882 2°29.615 -999 -999 -999 -999
2009-09-25 08:51:20 51°23.883 2°29.615 -999 -999 -999 -999
2009-09-25 08:51:30 51°23.883 2°29.615 -999 -999 -999 -999
2009-09-25 08:51:40 51°23.884 2°29.615 -999 -999 -999 -999
2009-09-25 08:51:50 51°23.886 2°29.615 -999 -999 -999 -999
2009-09-25 08:52:00 51°23.886 2°29.615 -999 -999 -999 -999
2009-09-25 08:52:10 51°23.887 2°29.616 -999 -999 -999 -999
2009-09-25 08:52:20 51°23.888 2°29.616 -999 -999 -999 -999
2009-09-25 08:52:30 51°23.889 2°29.616 -999 -999 -999 -999
2009-09-25 08:52:40 51°23.89 2°29.616 -999 -999 -999 -999
2009-09-25 08:52:50 51°23.891 2°29.617 -999 -999 -999 -999
2009-09-25 08:53:00 51°23.892 2°29.617 -999 -999 -999 -999
2009-09-25 08:53:10 51°23.893 2°29.617 -999 -999 -999 -999
2009-09-25 08:53:20 51°23.894 2°29.617 -999 -999 -999 -999
2009-09-25 08:53:30 51°23.895 2°29.617 -999 -999 -999 -999
2009-09-25 08:53:40 51°23.895 2°29.618 -999 -999 -999 -999
2009-09-25 08:53:50 51°23.896 2°29.618 -999 -999 -999 -999
2009-09-25 08:54:00 51°23.897 2°29.618 -999 -999 -999 -999
2009-09-25 08:54:10 51°23.898 2°29.618 -999 -999 -999 -999
2009-09-25 08:54:20 51°23.899 2°29.618 -999 -999 -999 -999
2009-09-25 08:54:30 51°23.9 2°29.619 -999 -999 -999 -999
2009-09-25 08:54:40 51°23.901 2°29.619 -999 -999 -999 -999
2009-09-25 08:54:50 51°23.902 2°29.619 -999 -999 -999 -999
2009-09-25 08:55:00 51°23.903 2°29.619 -999 -999 -999 -999
2009-09-25 08:55:10 51°23.904 2°29.619 -999 -999 -999 -999
2009-09-25 08:55:20 51°23.904 2°29.619 -999 -999 -999 -999
2009-09-25 08:55:30 51°23.905 2°29.619 -999 -999 -999 -999
2009-09-25 08:55:40 51°23.906 2°29.619 -999 -999 -999 -999
2009-09-25 08:55:50 51°23.907 2°29.619 -999 -999 -999 -999
2009-09-25 08:56:00 51°23.908 2°29.62 -999 -999 -999 -999
2009-09-25 08:56:10 51°23.909 2°29.619 -999 -999 -999 -999
2009-09-25 08:56:20 51°23.91 2°29.62 -999 -999 -999 -999
2009-09-25 08:56:30 51°23.911 2°29.62 -999 -999 -999 -999
2009-09-25 08:56:40 51°23.912 2°29.62 -999 -999 -999 -999
2009-09-25 08:56:50 51°23.912 2°29.62 -999 -999 -999 -999
2009-09-25 08:57:00 51°23.913 2°29.62 -999 -999 -999 -999
2009-09-25 08:57:10 51°23.914 2°29.62 -999 -999 -999 -999
2009-09-25 08:57:20 51°23.915 2°29.62 -999 -999 -999 -999
2009-09-25 08:57:30 51°23.916 2°29.62 -999 -999 -999 -999
2009-09-25 08:57:40 51°23.916 2°29.62 -999 -999 -999 -999
2009-09-25 08:57:50 51°23.917 2°29.62 -999 -999 -999 -999
2009-09-25 08:58:00 51°23.918 2°29.62 -999 -999 -999 -999
2009-09-25 08:58:10 51°23.919 2°29.62 -999 -999 -999 -999
2009-09-25 08:58:20 51°23.92 2°29.619 -999 -999 -999 -999
2009-09-25 08:58:30 51°23.921 2°29.619 -999 -999 -999 -999
2009-09-25 08:58:40 51°23.922 2°29.619 -999 -999 -999 -999
2009-09-25 08:58:50 51°23.922 2°29.619 -999 -999 -999 -999
2009-09-25 08:59:00 51°23.923 2°29.619 -999 -999 -999 -999
2009-09-25 08:59:10 51°23.924 2°29.619 -999 -999 -999 -999
2009-09-25 08:59:20 51°23.925 2°29.619 -999 -999 -999 -999
2009-09-25 08:59:30 51°23.926 2°29.619 -999 -999 -999 -999
2009-09-25 08:59:40 51°23.926 2°29.619 -999 -999 -999 -999
2009-09-25 08:59:50 51°23.927 2°29.619 -999 -999 -999 -999
2009-09-25 09:00:00 51°23.928 2°29.619 -999 -999 -999 -999
2009-09-25 09:00:10 51°23.929 2°29.619 -999 -999 -999 -999
2009-09-25 09:00:20 51°23.93 2°29.619 -999 -999 -999 -999
2009-09-25 09:00:30 51°23.93 2°29.619 -999 -999 -999 -999
2009-09-25 09:00:40 51°23.931 2°29.619 -999 -999 -999 -999
2009-09-25 09:00:50 51°23.932 2°29.619 -999 -999 -999 -999
2009-09-25 09:01:00 51°23.933 2°29.619 -999 -999 -999 -999
2009-09-25 09:01:10 51°23.933 2°29.619 -999 -999 -999 -999
2009-09-25 09:01:20 51°23.934 2°29.619 -999 -999 -999 -999
2009-09-25 09:01:30 51°23.935 2°29.618 -999 -999 -999 -999
2009-09-25 09:01:40 51°23.936 2°29.618 -999 -999 -999 -999
2009-09-25 09:01:50 51°23.936 2°29.618 -999 -999 -999 -999
2009-09-25 09:02:00 51°23.937 2°29.618 -999 -999 -999 -999
2009-09-25 09:02:10 51°23.938 2°29.618 -999 -999 -999 -999
2009-09-25 09:02:20 51°23.939 2°29.617 -999 -999 -999 -999
2009-09-25 09:02:30 51°23.94 2°29.617 -999 -999 -999 -999
2009-09-25 09:02:40 51°23.94 2°29.617 -999 -999 -999 -999
2009-09-25 09:02:50 51°23.941 2°29.617 -999 -999 -999 -999
2009-09-25 09:03:00 51°23.942 2°29.617 -999 -999 -999 -999
2009-09-25 09:03:10 51°23.943 2°29.617 -999 -999 -999 -999
2009-09-25 09:03:20 51°23.944 2°29.616 -999 -999 -999 -999
2009-09-25 09:03:30 51°23.945 2°29.616 -999 -999 -999 -999
2009-09-25 09:03:40 51°23.945 2°29.616 -999 -999 -999 -999
2009-09-25 09:03:50 51°23.946 2°29.616 -999 -999 -999 -999
2009-09-25 09:04:00 51°23.947 2°29.616 -999 -999 -999 -999
2009-09-25 09:04:10 51°23.947 2°29.615 -999 -999 -999 -999
2009-09-25 09:04:20 51°23.948 2°29.615 -999 -999 -999 -999
2009-09-25 09:04:30 51°23.949 2°29.615 -999 -999 -999 -999
2009-09-25 09:04:40 51°23.949 2°29.615 -999 -999 -999 -999
2009-09-25 09:04:50 51°23.95 2°29.614 -999 -999 -999 -999
2009-09-25 09:05:00 51°23.951 2°29.614 -999 -999 -999 -999
2009-09-25 09:05:10 51°23.951 2°29.614 -999 -999 -999 -999
2009-09-25 09:05:20 51°23.952 2°29.614 -999 -999 -999 -999
2009-09-25 09:05:30 51°23.952 2°29.613 -999 -999 -999 -999
2009-09-25 09:05:40 51°23.953 2°29.613 -999 -999 -999 -999
2009-09-25 09:05:50 51°23.954 2°29.613 -999 -999 -999 -999
2009-09-25 09:06:00 51°23.954 2°29.613 -999 -999 -999 -999
2009-09-25 09:06:10 51°23.955 2°29.613 -999 -999 -999 -999
2009-09-25 09:06:20 51°23.956 2°29.612 -999 -999 -999 -999
2009-09-25 09:06:30 51°23.956 2°29.612 -999 -999 -999 -999
2009-09-25 09:06:40 51°23.957 2°29.612 -999 -999 -999 -999
2009-09-25 09:06:50 51°23.957 2°29.612 -999 -999 -999 -999
2009-09-25 09:07:00 51°23.958 2°29.612 -999 -999 -999 -999
2009-09-25 09:07:10 51°23.958 2°29.611 -999 -999 -999 -999
2009-09-25 09:07:20 51°23.959 2°29.611 -999 -999 -999 -999
2009-09-25 09:07:30 51°23.959 2°29.611 -999 -999 -999 -999
2009-09-25 09:07:40 51°23.96 2°29.611 -999 -999 -999 -999
2009-09-25 09:07:50 51°23.96 2°29.61 -999 -999 -999 -999
2009-09-25 09:08:00 51°23.96 2°29.61 -999 -999 -999 -999
2009-09-25 09:08:10 51°23.961 2°29.61 -999 -999 -999 -999
2009-09-25 09:08:20 51°23.961 2°29.609 -999 -999 -999 -999
2009-09-25 09:08:30 51°23.961 2°29.609 -999 -999 -999 -999
2009-09-25 09:08:40 51°23.962 2°29.609 -999 -999 -999 -999
2009-09-25 09:08:50 51°23.962 2°29.608 -999 -999 -999 -999
2009-09-25 09:09:00 51°23.962 2°29.608 -999 -999 -999 -999
2009-09-25 09:09:10 51°23.962 2°29.608 -999 -999 -999 -999
2009-09-25 09:09:20 51°23.963 2°29.607 -999 -999 -999 -999
2009-09-25 09:09:30 51°23.963 2°29.607 -999 -999 -999 -999
2009-09-25 09:09:40 51°23.963 2°29.607 -999 -999 -999 -999
2009-09-25 09:09:50 51°23.963 2°29.607 -999 -999 -999 -999
2009-09-25 09:10:00 51°23.964 2°29.606 -999 -999 -999 -999
2009-09-25 09:10:10 51°23.964 2°29.606 -999 -999 -999 -999
2009-09-25 09:10:20 51°23.964 2°29.606 -999 -999 -999 -999
2009-09-25 09:10:30 51°23.964 2°29.606 -999 -999 -999 -999
2009-09-25 09:10:40 51°23.964 2°29.606 -999 -999 -999 -999
2009-09-25 09:10:50 51°23.964 2°29.605 -999 -999 -999 -999
2009-09-25 09:11:00 51°23.965 2°29.605 -999 -999 -999 -999
2009-09-25 09:11:10 51°23.965 2°29.605 -999 -999 -999 -999
2009-09-25 09:11:20 51°23.965 2°29.604 -999 -999 -999 -999
2009-09-25 09:11:30 51°23.965 2°29.604 -999 -999 -999 -999
2009-09-25 09:11:40 51°23.965 2°29.604 -999 -999 -999 -999
2009-09-25 09:11:50 51°23.966 2°29.603 -999 -999 -999 -999
2009-09-25 09:12:00 51°23.966 2°29.603 -999 -999 -999 -999
2009-09-25 09:12:10 51°23.966 2°29.603 -999 -999 -999 -999
2009-09-25 09:12:20 51°23.967 2°29.603 -999 -999 -999 -999
2009-09-25 09:12:30 51°23.967 2°29.602 -999 -999 -999 -999
2009-09-25 09:12:40 51°23.967 2°29.602 -999 -999 -999 -999
2009-09-25 09:12:50 51°23.967 2°29.602 -999 -999 -999 -999
2009-09-25 09:13:00 51°23.968 2°29.602 -999 -999 -999 -999
2009-09-25 09:13:10 51°23.968 2°29.601 -999 -999 -999 -999
2009-09-25 09:13:20 51°23.968 2°29.601 -999 -999 -999 -999
2009-09-25 09:13:30 51°23.969 2°29.601 -999 -999 -999 -999
2009-09-25 09:13:40 51°23.969 2°29.601 -999 -999 -999 -999
2009-09-25 09:13:50 51°23.969 2°29.601 -999 -999 -999 -999
2009-09-25 09:14:00 51°23.97 2°29.601 -999 -999 -999 -999
2009-09-25 09:14:10 51°23.97 2°29.6 -999 -999 -999 -999
2009-09-25 09:14:20 51°23.97 2°29.6 -999 -999 -999 -999
2009-09-25 09:14:30 51°23.971 2°29.6 -999 -999 -999 -999
2009-09-25 09:14:40 51°23.971 2°29.6 -999 -999 -999 -999
2009-09-25 09:14:50 51°23.972 2°29.6 -999 -999 -999 -999
2009-09-25 09:15:00 51°23.972 2°29.599 -999 -999 -999 -999
2009-09-25 09:15:10 51°23.973 2°29.599 -999 -999 -999 -999
2009-09-25 09:15:20 51°23.973 2°29.599 -999 -999 -999 -999
2009-09-25 09:15:30 51°23.973 2°29.598 -999 -999 -999 -999
2009-09-25 09:15:40 51°23.974 2°29.598 -999 -999 -999 -999
2009-09-25 09:15:50 51°23.974 2°29.597 -999 -999 -999 -999
2009-09-25 09:16:00 51°23.974 2°29.597 -999 -999 -999 -999
2009-09-25 09:16:10 51°23.975 2°29.596 -999 -999 -999 -999
2009-09-25 09:16:20 51°23.975 2°29.596 -999 -999 -999 -999
2009-09-25 09:16:30 51°23.976 2°29.595 -999 -999 -999 -999
2009-09-25 09:16:40 51°23.976 2°29.595 -999 -999 -999 -999
2009-09-25 09:16:50 51°23.976 2°29.594 -999 -999 -999 -999
2009-09-25 09:17:00 51°23.977 2°29.594 -999 -999 -999 -999
2009-09-25 09:17:10 51°23.977 2°29.593 -999 -999 -999 -999
2009-09-25 09:17:20 51°23.977 2°29.593 -999 -999 -999 -999
2009-09-25 09:17:30 51°23.978 2°29.593 -999 -999 -999 -999
2009-09-25 09:17:40 51°23.978 2°29.592 -999 -999 -999 -999
2009-09-25 09:17:50 51°23.978 2°29.592 -999 -999 -999 -999
2009-09-25 09:18:00 51°23.978 2°29.591 -999 -999 -999 -999
2009-09-25 09:18:10 51°23.979 2°29.591 -999 -999 -999 -999
2009-09-25 09:18:20 51°23.979 2°29.59 -999 -999 -999 -999
2009-09-25 09:18:30 51°23.979 2°29.59 -999 -999 -999 -999
2009-09-25 09:18:40 51°23.98 2°29.589 -999 -999 -999 -999
2009-09-25 09:18:50 51°23.98 2°29.589 -999 -999 -999 -999
2009-09-25 09:19:00 51°23.98 2°29.588 -999 -999 -999 -999
2009-09-25 09:19:10 51°23.981 2°29.588 -999 -999 -999 -999
2009-09-25 09:19:20 51°23.981 2°29.588 -999 -999 -999 -999
2009-09-25 09:19:30 51°23.981 2°29.587 -999 -999 -999 -999
2009-09-25 09:19:40 51°23.982 2°29.587 -999 -999 -999 -999
2009-09-25 09:19:50 51°23.982 2°29.587 -999 -999 -999 -999
2009-09-25 09:20:00 51°23.982 2°29.587 -999 -999 -999 -999
2009-09-25 09:20:10 51°23.981 2°29.587 -999 -999 -999 -999
2009-09-25 09:20:20 51°23.981 2°29.589 -999 -999 -999 -999
2009-09-25 09:20:30 51°23.979 2°29.591 -999 -999 -999 -999
2009-09-25 09:20:40 51°23.978 2°29.594 -999 -999 -999 -999
2009-09-25 09:20:50 51°23.976 2°29.597 -999 -999 -999 -999
2009-09-25 09:21:00 51°23.974 2°29.601 -999 -999 -999 -999
2009-09-25 09:21:10 51°23.971 2°29.605 -999 -999 -999 -999
2009-09-25 09:21:20 51°23.968 2°29.609 -999 -999 -999 -999
2009-09-25 09:21:30 51°23.965 2°29.612 -999 -999 -999 -999
2009-09-25 09:21:40 51°23.963 2°29.615 -999 -999 -999 -999
2009-09-25 09:21:50 51°23.96 2°29.618 -999 -999 -999 -999
2009-09-25 09:22:00 51°23.958 2°29.62 -999 -999 -999 -999
2009-09-25 09:22:10 51°23.956 2°29.622 -999 -999 -999 -999
2009-09-25 09:22:20 51°23.954 2°29.624 -999 -999 -999 -999
2009-09-25 09:22:30 51°23.952 2°29.626 -999 -999 -999 -999
2009-09-25 09:22:40 51°23.95 2°29.627 -999 -999 -999 -999
2009-09-25 09:22:50 51°23.948 2°29.628 -999 -999 -999 -999
2009-09-25 09:23:00 51°23.946 2°29.629 -999 -999 -999 -999
2009-09-25 09:23:10 51°23.945 2°29.63 -999 -999 -999 -999
2009-09-25 09:23:20 51°23.943 2°29.631 -999 -999 -999 -999
2009-09-25 09:23:30 51°23.942 2°29.631 -999 -999 -999 -999
2009-09-25 09:23:40 51°23.94 2°29.632 -999 -999 -999 -999
2009-09-25 09:23:50 51°23.939 2°29.632 -999 -999 -999 -999
2009-09-25 09:24:00 51°23.938 2°29.632 -999 -999 -999 -999
2009-09-25 09:24:10 51°23.936 2°29.632 -999 -999 -999 -999
2009-09-25 09:24:20 51°23.935 2°29.632 -999 -999 -999 -999
2009-09-25 09:24:30 51°23.934 2°29.632 -999 -999 -999 -999
2009-09-25 09:24:40 51°23.933 2°29.633 -999 -999 -999 -999
2009-09-25 09:24:50 51°23.932 2°29.633 -999 -999 -999 -999
2009-09-25 09:25:00 51°23.931 2°29.633 -999 -999 -999 -999
2009-09-25 09:25:10 51°23.931 2°29.633 -999 -999 -999 -999
2009-09-25 09:25:20 51°23.93 2°29.633 -999 -999 -999 -999
2009-09-25 09:25:30 51°23.929 2°29.632 -999 -999 -999 -999
2009-09-25 09:25:40 51°23.928 2°29.632 -999 -999 -999 -999
2009-09-25 09:25:50 51°23.927 2°29.632 -999 -999 -999 -999
2009-09-25 09:26:00 51°23.927 2°29.631 -999 -999 -999 -999
2009-09-25 09:26:10 51°23.926 2°29.631 -999 -999 -999 -999
2009-09-25 09:26:20 51°23.925 2°29.631 -999 -999 -999 -999
2009-09-25 09:26:30 51°23.925 2°29.631 -999 -999 -999 -999
2009-09-25 09:26:40 51°23.925 2°29.63 -999 -999 -999 -999
2009-09-25 09:26:50 51°23.924 2°29.63 -999 -999 -999 -999
2009-09-25 09:27:00 51°23.924 2°29.629 -999 -999 -999 -999
2009-09-25 09:27:10 51°23.923 2°29.629 -999 -999 -999 -999
2009-09-25 09:27:20 51°23.923 2°29.628 -999 -999 -999 -999
2009-09-25 09:27:30 51°23.922 2°29.628 -999 -999 -999 -999
2009-09-25 09:27:40 51°23.922 2°29.627 -999 -999 -999 -999
2009-09-25 09:27:50 51°23.922 2°29.626 -999 -999 -999 -999
2009-09-25 09:28:00 51°23.921 2°29.625 -999 -999 -999 -999
2009-09-25 09:28:10 51°23.921 2°29.625 -999 -999 -999 -999
2009-09-25 09:28:20 51°23.921 2°29.624 -999 -999 -999 -999
2009-09-25 09:28:30 51°23.921 2°29.623 -999 -999 -999 -999
2009-09-25 09:28:40 51°23.921 2°29.623 -999 -999 -999 -999
2009-09-25 09:28:50 51°23.92 2°29.622 -999 -999 -999 -999
2009-09-25 09:29:00 51°23.92 2°29.622 -999 -999 -999 -999
2009-09-25 09:29:10 51°23.92 2°29.621 -999 -999 -999 -999
2009-09-25 09:29:20 51°23.921 2°29.62 -999 -999 -999 -999
2009-09-25 09:29:30 51°23.921 2°29.619 -999 -999 -999 -999
2009-09-25 09:29:40 51°23.921 2°29.618 -999 -999 -999 -999
2009-09-25 09:29:50 51°23.921 2°29.617 -999 -999 -999 -999
2009-09-25 09:30:00 51°23.922 2°29.616 -999 -999 -999 -999
2009-09-25 09:30:10 51°23.922 2°29.616 -999 -999 -999 -999
2009-09-25 09:30:20 51°23.922 2°29.615 -999 -999 -999 -999
2009-09-25 09:30:30 51°23.922 2°29.614 -999 -999 -999 -999
2009-09-25 09:30:40 51°23.922 2°29.613 -999 -999 -999 -999
2009-09-25 09:30:50 51°23.922 2°29.612 -999 -999 -999 -999
2009-09-25 09:31:00 51°23.922 2°29.611 -999 -999 -999 -999
2009-09-25 09:31:10 51°23.923 2°29.61 -999 -999 -999 -999
2009-09-25 09:31:20 51°23.923 2°29.609 -999 -999 -999 -999
2009-09-25 09:31:30 51°23.923 2°29.607 -999 -999 -999 -999
2009-09-25 09:31:40 51°23.924 2°29.606 -999 -999 -999 -999
2009-09-25 09:31:50 51°23.924 2°29.605 -999 -999 -999 -999
2009-09-25 09:32:00 51°23.924 2°29.603 -999 -999 -999 -999
2009-09-25 09:32:10 51°23.925 2°29.603 -999 -999 -999 -999
2009-09-25 09:32:20 51°23.925 2°29.601 -999 -999 -999 -999
2009-09-25 09:32:30 51°23.925 2°29.6 -999 -999 -999 -999
2009-09-25 09:32:40 51°23.926 2°29.598 -999 -999 -999 -999
2009-09-25 09:32:50 51°23.926 2°29.597 -999 -999 -999 -999
2009-09-25 09:33:00 51°23.926 2°29.596 -999 -999 -999 -999
2009-09-25 09:33:10 51°23.93 2°29.59 -999 -999 -999 -999
2009-09-25 09:33:20 51°23.928 2°29.593 -999 -999 -999 -999
2009-09-25 09:33:30 51°23.928 2°29.591 -999 -999 -999 -999
2009-09-25 09:33:40 51°23.928 2°29.59 -999 -999 -999 -999
2009-09-25 09:33:50 51°23.928 2°29.588 -999 -999 -999 -999
2009-09-25 09:34:00 51°23.929 2°29.587 -999 -999 -999 -999
2009-09-25 09:34:10 51°23.929 2°29.585 -999 -999 -999 -999
2009-09-25 09:34:20 51°23.929 2°29.583 -999 -999 -999 -999
2009-09-25 09:34:30 51°23.93 2°29.581 -999 -999 -999 -999
2009-09-25 09:34:40 51°23.93 2°29.579 -999 -999 -999 -999
2009-09-25 09:34:50 51°23.93 2°29.577 -999 -999 -999 -999
2009-09-25 09:35:00 51°23.93 2°29.575 -999 -999 -999 -999
2009-09-25 09:35:10 51°23.93 2°29.573 -999 -999 -999 -999
2009-09-25 09:35:20 51°23.93 2°29.572 -999 -999 -999 -999
2009-09-25 09:35:30 51°23.93 2°29.57 -999 -999 -999 -999
2009-09-25 09:35:40 51°23.93 2°29.568 -999 -999 -999 -999
2009-09-25 09:35:50 51°23.93 2°29.565 -999 -999 -999 -999
2009-09-25 09:36:00 51°23.931 2°29.563 -999 -999 -999 -999
2009-09-25 09:36:10 51°23.931 2°29.561 -999 -999 -999 -999
2009-09-25 09:36:20 51°23.931 2°29.559 -999 -999 -999 -999
2009-09-25 09:36:30 51°23.931 2°29.556 -999 -999 -999 -999
2009-09-25 09:36:40 51°23.931 2°29.554 -999 -999 -999 -999
2009-09-25 09:36:50 51°23.931 2°29.552 -999 -999 -999 -999
2009-09-25 09:37:00 51°23.931 2°29.55 -999 -999 -999 -999
2009-09-25 09:37:10 51°23.931 2°29.55 -999 -999 -999 -999
2009-09-25 09:37:20 51°23.93 2°29.551 -999 -999 -999 -999
2009-09-25 09:37:30 51°23.928 2°29.553 -999 -999 -999 -999
2009-09-25 09:37:40 51°23.925 2°29.556 -999 -999 -999 -999
2009-09-25 09:37:50 51°23.921 2°29.559 -999 -999 -999 -999
2009-09-25 09:38:00 51°23.917 2°29.561 -999 -999 -999 -999
2009-09-25 09:38:10 51°23.912 2°29.563 -999 -999 -999 -999
2009-09-25 09:38:20 51°23.907 2°29.565 -999 -999 -999 -999
2009-09-25 09:38:30 51°23.901 2°29.565 -999 -999 -999 -999
2009-09-25 09:38:40 51°23.895 2°29.564 -999 -999 -999 -999
2009-09-25 09:38:50 51°23.889 2°29.562 -999 -999 -999 -999
2009-09-25 09:39:00 51°23.883 2°29.56 -999 -999 -999 -999
2009-09-25 09:39:10 51°23.877 2°29.558 -999 -999 -999 -999
2009-09-25 09:39:20 51°23.872 2°29.555 -999 -999 -999 -999
2009-09-25 09:39:30 51°23.867 2°29.551 -999 -999 -999 -999
2009-09-25 09:39:40 51°23.862 2°29.548 -999 -999 -999 -999
2009-09-25 09:39:50 51°23.858 2°29.544 -999 -999 -999 -999
2009-09-25 09:40:00 51°23.853 2°29.54 -999 -999 -999 -999
2009-09-25 09:40:10 51°23.849 2°29.535 -999 -999 -999 -999
2009-09-25 09:40:20 51°23.845 2°29.531 -999 -999 -999 -999
2009-09-25 09:40:30 51°23.841 2°29.526 -999 -999 -999 -999
2009-09-25 09:40:40 51°23.837 2°29.521 -999 -999 -999 -999
2009-09-25 09:40:50 51°23.834 2°29.515 -999 -999 -999 -999
2009-09-25 09:41:00 51°23.83 2°29.509 -999 -999 -999 -999
2009-09-25 09:41:10 51°23.826 2°29.503 -999 -999 -999 -999
2009-09-25 09:41:20 51°23.823 2°29.496 -999 -999 -999 -999
2009-09-25 09:41:30 51°23.82 2°29.489 -999 -999 -999 -999
2009-09-25 09:41:40 51°23.818 2°29.481 -999 -999 -999 -999
2009-09-25 09:41:50 51°23.815 2°29.471 -999 -999 -999 -999
2009-09-25 09:42:00 51°23.814 2°29.461 -999 -999 -999 -999
2009-09-25 09:42:10 51°23.813 2°29.451 -999 -999 -999 -999
2009-09-25 09:42:20 51°23.812 2°29.44 -999 -999 -999 -999
2009-09-25 09:42:30 51°23.813 2°29.431 -999 -999 -999 -999
2009-09-25 09:42:40 51°23.814 2°29.421 -999 -999 -999 -999
2009-09-25 09:42:50 51°23.816 2°29.413 -999 -999 -999 -999
2009-09-25 09:43:00 51°23.818 2°29.404 -999 -999 -999 -999
2009-09-25 09:43:10 51°23.82 2°29.396 -999 -999 -999 -999
2009-09-25 09:43:20 51°23.822 2°29.388 -999 -999 -999 -999
2009-09-25 09:43:30 51°23.824 2°29.379 -999 -999 -999 -999
2009-09-25 09:43:40 51°23.827 2°29.371 -999 -999 -999 -999
2009-09-25 09:43:50 51°23.829 2°29.362 -999 -999 -999 -999
2009-09-25 09:44:00 51°23.832 2°29.353 -999 -999 -999 -999
2009-09-25 09:44:10 51°23.835 2°29.344 -999 -999 -999 -999
2009-09-25 09:44:20 51°23.837 2°29.335 -999 -999 -999 -999
2009-09-25 09:44:30 51°23.84 2°29.325 -999 -999 -999 -999
2009-09-25 09:44:40 51°23.842 2°29.315 -999 -999 -999 -999
2009-09-25 09:44:50 51°23.844 2°29.305 -999 -999 -999 -999
2009-09-25 09:45:00 51°23.846 2°29.295 -999 -999 -999 -999
2009-09-25 09:45:10 51°23.847 2°29.285 -999 -999 -999 -999
2009-09-25 09:45:20 51°23.849 2°29.274 -999 -999 -999 -999
2009-09-25 09:45:30 51°23.851 2°29.264 -999 -999 -999 -999
2009-09-25 09:45:40 51°23.853 2°29.253 -999 -999 -999 -999
2009-09-25 09:45:50 51°23.855 2°29.242 -999 -999 -999 -999
2009-09-25 09:46:00 51°23.857 2°29.231 -999 -999 -999 -999
2009-09-25 09:46:10 51°23.859 2°29.22 -999 -999 -999 -999
2009-09-25 09:46:20 51°23.862 2°29.209 -999 -999 -999 -999
2009-09-25 09:46:30 51°23.864 2°29.199 -999 -999 -999 -999
2009-09-25 09:46:40 51°23.866 2°29.188 -999 -999 -999 -999
2009-09-25 09:46:50 51°23.869 2°29.177 -999 -999 -999 -999
2009-09-25 09:47:00 51°23.871 2°29.167 -999 -999 -999 -999
2009-09-25 09:47:10 51°23.874 2°29.156 -999 -999 -999 -999
2009-09-25 09:47:20 51°23.876 2°29.146 -999 -999 -999 -999
2009-09-25 09:47:30 51°23.879 2°29.136 -999 -999 -999 -999
2009-09-25 09:47:40 51°23.883 2°29.126 -999 -999 -999 -999
2009-09-25 09:47:50 51°23.886 2°29.117 -999 -999 -999 -999
2009-09-25 09:48:00 51°23.89 2°29.109 -999 -999 -999 -999
2009-09-25 09:48:10 51°23.893 2°29.103 -999 -999 -999 -999
2009-09-25 09:48:20 51°23.896 2°29.097 -999 -999 -999 -999
2009-09-25 09:48:30 51°23.899 2°29.091 -999 -999 -999 -999
2009-09-25 09:48:40 51°23.902 2°29.087 -999 -999 -999 -999
2009-09-25 09:48:50 51°23.904 2°29.082 -999 -999 -999 -999
2009-09-25 09:49:00 51°23.907 2°29.077 -999 -999 -999 -999
2009-09-25 09:49:10 51°23.909 2°29.073 -999 -999 -999 -999
2009-09-25 09:49:20 51°23.911 2°29.069 -999 -999 -999 -999
2009-09-25 09:49:30 51°23.912 2°29.065 -999 -999 -999 -999
2009-09-25 09:49:40 51°23.914 2°29.061 -999 -999 -999 -999
2009-09-25 09:49:50 51°23.916 2°29.057 -999 -999 -999 -999
2009-09-25 09:50:00 51°23.919 2°29.053 -999 -999 -999 -999
2009-09-25 09:50:10 51°23.922 2°29.05 -999 -999 -999 -999
2009-09-25 09:50:20 51°23.925 2°29.047 -999 -999 -999 -999
2009-09-25 09:50:30 51°23.928 2°29.044 -999 -999 -999 -999
2009-09-25 09:50:40 51°23.931 2°29.043 -999 -999 -999 -999
2009-09-25 09:50:50 51°23.935 2°29.043 -999 -999 -999 -999
2009-09-25 09:51:00 51°23.939 2°29.045 -999 -999 -999 -999
2009-09-25 09:51:10 51°23.942 2°29.047 -999 -999 -999 -999
2009-09-25 09:51:20 51°23.945 2°29.051 -999 -999 -999 -999
2009-09-25 09:51:30 51°23.947 2°29.056 -999 -999 -999 -999
2009-09-25 09:51:40 51°23.949 2°29.062 -999 -999 -999 -999
2009-09-25 09:51:50 51°23.95 2°29.069 -999 -999 -999 -999
2009-09-25 09:52:00 51°23.951 2°29.076 -999 -999 -999 -999
2009-09-25 09:52:10 51°23.952 2°29.084 -999 -999 -999 -999
2009-09-25 09:52:20 51°23.953 2°29.093 -999 -999 -999 -999
2009-09-25 09:52:30 51°23.953 2°29.102 -999 -999 -999 -999
2009-09-25 09:52:40 51°23.952 2°29.111 -999 -999 -999 -999
2009-09-25 09:52:50 51°23.95 2°29.12 -999 -999 -999 -999
2009-09-25 09:53:00 51°23.947 2°29.129 -999 -999 -999 -999
2009-09-25 09:53:10 51°23.944 2°29.138 -999 -999 -999 -999
2009-09-25 09:53:20 51°23.94 2°29.147 -999 -999 -999 -999
2009-09-25 09:53:30 51°23.935 2°29.159 -999 -999 -999 -999
2009-09-25 09:53:40 51°23.929 2°29.173 -999 -999 -999 -999
2009-09-25 09:53:50 51°23.921 2°29.189 -999 -999 -999 -999
2009-09-25 09:54:00 51°23.912 2°29.208 -999 -999 -999 -999
2009-09-25 09:54:10 51°23.903 2°29.228 -999 -999 -999 -999
2009-09-25 09:54:20 51°23.894 2°29.25 -999 -999 -999 -999
2009-09-25 09:54:30 51°23.884 2°29.273 -999 -999 -999 -999
2009-09-25 09:54:40 51°23.875 2°29.297 -999 -999 -999 -999
2009-09-25 09:54:50 51°23.866 2°29.322 -999 -999 -999 -999
2009-09-25 09:55:00 51°23.857 2°29.347 -999 -999 -999 -999
2009-09-25 09:55:10 51°23.849 2°29.374 -999 -999 -999 -999
2009-09-25 09:55:20 51°23.841 2°29.398 -999 -999 -999 -999
2009-09-25 09:55:30 51°23.832 2°29.427 -999 -999 -999 -999
2009-09-25 09:55:40 51°23.824 2°29.454 -999 -999 -999 -999
2009-09-25 09:55:50 51°23.816 2°29.481 -999 -999 -999 -999
2009-09-25 09:56:00 51°23.808 2°29.509 -999 -999 -999 -999
2009-09-25 09:56:10 51°23.8 2°29.537 -999 -999 -999 -999
2009-09-25 09:56:20 51°23.792 2°29.564 -999 -999 -999 -999
2009-09-25 09:56:30 51°23.785 2°29.592 -999 -999 -999 -999
2009-09-25 09:56:40 51°23.777 2°29.62 -999 -999 -999 -999
2009-09-25 09:56:50 51°23.771 2°29.645 -999 -999 -999 -999
2009-09-25 09:57:00 51°23.765 2°29.667 -999 -999 -999 -999
2009-09-25 09:57:10 51°23.759 2°29.687 -999 -999 -999 -999
2009-09-25 09:57:20 51°23.754 2°29.706 -999 -999 -999 -999
2009-09-25 09:57:30 51°23.748 2°29.723 -999 -999 -999 -999
2009-09-25 09:57:40 51°23.744 2°29.739 -999 -999 -999 -999
2009-09-25 09:57:50 51°23.739 2°29.754 -999 -999 -999 -999
2009-09-25 09:58:00 51°23.735 2°29.767 -999 -999 -999 -999
2009-09-25 09:58:10 51°23.732 2°29.78 -999 -999 -999 -999
2009-09-25 09:58:20 51°23.729 2°29.792 -999 -999 -999 -999
2009-09-25 09:58:30 51°23.726 2°29.802 -999 -999 -999 -999
2009-09-25 09:58:40 51°23.724 2°29.812 -999 -999 -999 -999
2009-09-25 09:58:50 51°23.721 2°29.821 -999 -999 -999 -999
2009-09-25 09:59:00 51°23.72 2°29.83 -999 -999 -999 -999
2009-09-25 09:59:10 51°23.718 2°29.837 -999 -999 -999 -999
2009-09-25 09:59:20 51°23.717 2°29.845 -999 -999 -999 -999
2009-09-25 09:59:30 51°23.716 2°29.851 -999 -999 -999 -999
2009-09-25 09:59:40 51°23.715 2°29.857 -999 -999 -999 -999
2009-09-25 09:59:50 51°23.715 2°29.862 -999 -999 -999 -999
2009-09-25 10:00:00 51°23.715 2°29.867 -999 -999 -999 -999
2009-09-25 10:00:10 51°23.716 2°29.871 -999 -999 -999 -999
2009-09-25 10:00:20 51°23.716 2°29.874 -999 -999 -999 -999
2009-09-25 10:00:30 51°23.717 2°29.877 -999 -999 -999 -999
2009-09-25 10:00:40 51°23.718 2°29.88 -999 -999 -999 -999
2009-09-25 10:00:50 51°23.718 2°29.882 -999 -999 -999 -999
2009-09-25 10:01:00 51°23.719 2°29.883 -999 -999 -999 -999
2009-09-25 10:01:10 51°23.72 2°29.884 -999 -999 -999 -999
2009-09-25 10:01:20 51°23.721 2°29.885 -999 -999 -999 -999
2009-09-25 10:01:30 51°23.722 2°29.886 -999 -999 -999 -999
2009-09-25 10:01:40 51°23.723 2°29.886 -999 -999 -999 -999
2009-09-25 10:01:50 51°23.724 2°29.886 -999 -999 -999 -999
2009-09-25 10:02:00 51°23.725 2°29.886 -999 -999 -999 -999
2009-09-25 10:02:10 51°23.726 2°29.886 -999 -999 -999 -999
2009-09-25 10:02:20 51°23.727 2°29.886 -999 -999 -999 -999
2009-09-25 10:02:30 51°23.728 2°29.885 -999 -999 -999 -999
2009-09-25 10:02:40 51°23.729 2°29.884 -999 -999 -999 -999
2009-09-25 10:02:50 51°23.73 2°29.883 -999 -999 -999 -999
2009-09-25 10:03:00 51°23.73 2°29.882 -999 -999 -999 -999
2009-09-25 10:03:10 51°23.731 2°29.881 -999 -999 -999 -999
2009-09-25 10:03:20 51°23.731 2°29.88 -999 -999 -999 -999
2009-09-25 10:03:30 51°23.731 2°29.879 -999 -999 -999 -999
2009-09-25 10:03:40 51°23.732 2°29.877 -999 -999 -999 -999
2009-09-25 10:03:50 51°23.732 2°29.876 -999 -999 -999 -999
2009-09-25 10:04:00 51°23.732 2°29.874 -999 -999 -999 -999
2009-09-25 10:04:10 51°23.731 2°29.873 -999 -999 -999 -999
2009-09-25 10:04:20 51°23.731 2°29.871 -999 -999 -999 -999
2009-09-25 10:04:30 51°23.731 2°29.87 -999 -999 -999 -999
2009-09-25 10:04:40 51°23.731 2°29.868 -999 -999 -999 -999
2009-09-25 10:04:50 51°23.73 2°29.867 -999 -999 -999 -999
2009-09-25 10:05:00 51°23.73 2°29.866 -999 -999 -999 -999
2009-09-25 10:05:10 51°23.729 2°29.865 -999 -999 -999 -999
2009-09-25 10:05:20 51°23.729 2°29.863 -999 -999 -999 -999
2009-09-25 10:05:30 51°23.728 2°29.862 -999 -999 -999 -999
2009-09-25 10:05:40 51°23.728 2°29.86 -999 -999 -999 -999
2009-09-25 10:05:50 51°23.727 2°29.86 -999 -999 -999 -999
2009-09-25 10:06:00 51°23.727 2°29.86 -999 -999 -999 -999
2009-09-25 10:06:10 51°23.727 2°29.86 -999 -999 -999 -999
2009-09-25 10:06:20 51°23.727 2°29.861 -999 -999 -999 -999
2009-09-25 10:06:30 51°23.727 2°29.863 -999 -999 -999 -999
2009-09-25 10:06:40 51°23.728 2°29.865 -999 -999 -999 -999
2009-09-25 10:06:50 51°23.729 2°29.866 -999 -999 -999 -999
2009-09-25 10:07:00 51°23.73 2°29.868 -999 -999 -999 -999
2009-09-25 10:07:10 51°23.73 2°29.868 -999 -999 -999 -999
2009-09-25 10:07:20 51°23.731 2°29.869 -999 -999 -999 -999
2009-09-25 10:07:30 51°23.731 2°29.87 -999 -999 -999 -999
2009-09-25 10:07:40 51°23.731 2°29.87 -999 -999 -999 -999
2009-09-25 10:07:50 51°23.731 2°29.871 -999 -999 -999 -999
2009-09-25 10:08:00 51°23.732 2°29.872 -999 -999 -999 -999
2009-09-25 10:08:10 51°23.732 2°29.873 -999 -999 -999 -999
2009-09-25 10:08:20 51°23.733 2°29.873 -999 -999 -999 -999
2009-09-25 10:08:30 51°23.734 2°29.873 -999 -999 -999 -999
2009-09-25 10:08:40 51°23.734 2°29.872 -999 -999 -999 -999
2009-09-25 10:08:50 51°23.735 2°29.872 -999 -999 -999 -999
2009-09-25 10:09:00 51°23.735 2°29.871 -999 -999 -999 -999
2009-09-25 10:09:10 51°23.736 2°29.87 -999 -999 -999 -999
2009-09-25 10:09:20 51°23.736 2°29.869 -999 -999 -999 -999
2009-09-25 10:09:30 51°23.736 2°29.868 -999 -999 -999 -999
2009-09-25 10:09:40 51°23.736 2°29.866 -999 -999 -999 -999
2009-09-25 10:09:50 51°23.736 2°29.865 -999 -999 -999 -999
2009-09-25 10:10:00 51°23.735 2°29.864 -999 -999 -999 -999
2009-09-25 10:10:10 51°23.735 2°29.862 -999 -999 -999 -999
2009-09-25 10:10:20 51°23.735 2°29.861 -999 -999 -999 -999
2009-09-25 10:10:30 51°23.734 2°29.86 -999 -999 -999 -999
2009-09-25 10:10:40 51°23.733 2°29.859 -999 -999 -999 -999
2009-09-25 10:10:50 51°23.732 2°29.858 -999 -999 -999 -999
2009-09-25 10:11:00 51°23.732 2°29.857 -999 -999 -999 -999
2009-09-25 10:11:10 51°23.73 2°29.855 -999 -999 -999 -999
2009-09-25 10:11:20 51°23.73 2°29.854 -999 -999 -999 -999
2009-09-25 10:11:30 51°23.729 2°29.853 -999 -999 -999 -999
2009-09-25 10:11:40 51°23.728 2°29.852 -999 -999 -999 -999
2009-09-25 10:11:50 51°23.727 2°29.85 -999 -999 -999 -999
2009-09-25 10:12:00 51°23.726 2°29.849 -999 -999 -999 -999
2009-09-25 10:12:10 51°23.724 2°29.847 -999 -999 -999 -999
2009-09-25 10:12:20 51°23.723 2°29.846 -999 -999 -999 -999
2009-09-25 10:12:30 51°23.722 2°29.844 -999 -999 -999 -999
2009-09-25 10:12:40 51°23.72 2°29.842 -999 -999 -999 -999
2009-09-25 10:12:50 51°23.719 2°29.841 -999 -999 -999 -999
2009-09-25 10:13:00 51°23.717 2°29.839 -999 -999 -999 -999
2009-09-25 10:13:10 51°23.716 2°29.838 -999 -999 -999 -999
2009-09-25 10:13:20 51°23.716 2°29.837 -999 -999 -999 -999
2009-09-25 10:13:30 51°23.715 2°29.836 -999 -999 -999 -999
2009-09-25 10:13:40 51°23.715 2°29.835 -999 -999 -999 -999
2009-09-25 10:13:50 51°23.716 2°29.834 -999 -999 -999 -999
2009-09-25 10:14:00 51°23.716 2°29.833 -999 -999 -999 -999
2009-09-25 10:14:10 51°23.716 2°29.831 -999 -999 -999 -999
2009-09-25 10:14:20 51°23.717 2°29.829 -999 -999 -999 -999
2009-09-25 10:14:30 51°23.718 2°29.828 -999 -999 -999 -999
2009-09-25 10:14:40 51°23.719 2°29.827 -999 -999 -999 -999
2009-09-25 10:14:50 51°23.72 2°29.825 -999 -999 -999 -999
2009-09-25 10:15:00 51°23.721 2°29.823 -999 -999 -999 -999
2009-09-25 10:15:10 51°23.722 2°29.822 -999 -999 -999 -999
2009-09-25 10:15:20 51°23.723 2°29.82 -999 -999 -999 -999
2009-09-25 10:15:30 51°23.724 2°29.817 -999 -999 -999 -999
2009-09-25 10:15:40 51°23.725 2°29.816 -999 -999 -999 -999
2009-09-25 10:15:50 51°23.727 2°29.814 -999 -999 -999 -999
2009-09-25 10:16:00 51°23.728 2°29.812 -999 -999 -999 -999
2009-09-25 10:16:10 51°23.73 2°29.81 -999 -999 -999 -999
2009-09-25 10:16:20 51°23.73 2°29.808 -999 -999 -999 -999
2009-09-25 10:16:30 51°23.73 2°29.805 -999 -999 -999 -999
2009-09-25 10:16:40 51°23.73 2°29.803 -999 -999 -999 -999
2009-09-25 10:16:50 51°23.729 2°29.8 -999 -999 -999 -999
2009-09-25 10:17:00 51°23.728 2°29.797 -999 -999 -999 -999
2009-09-25 10:17:10 51°23.728 2°29.794 -999 -999 -999 -999
2009-09-25 10:17:20 51°23.728 2°29.792 -999 -999 -999 -999
2009-09-25 10:17:30 51°23.728 2°29.79 -999 -999 -999 -999
2009-09-25 10:17:40 51°23.728 2°29.787 -999 -999 -999 -999
2009-09-25 10:17:50 51°23.727 2°29.785 -999 -999 -999 -999
2009-09-25 10:18:00 51°23.727 2°29.783 -999 -999 -999 -999
2009-09-25 10:18:10 51°23.727 2°29.78 -999 -999 -999 -999
2009-09-25 10:18:20 51°23.726 2°29.778 -999 -999 -999 -999
2009-09-25 10:18:30 51°23.726 2°29.776 -999 -999 -999 -999
2009-09-25 10:18:40 51°23.725 2°29.773 -999 -999 -999 -999
2009-09-25 10:18:50 51°23.725 2°29.771 -999 -999 -999 -999
2009-09-25 10:19:00 51°23.724 2°29.768 -999 -999 -999 -999
2009-09-25 10:19:10 51°23.723 2°29.766 -999 -999 -999 -999
2009-09-25 10:19:20 51°23.723 2°29.763 -999 -999 -999 -999
2009-09-25 10:19:30 51°23.722 2°29.76 -999 -999 -999 -999
2009-09-25 10:19:40 51°23.721 2°29.758 -999 -999 -999 -999
2009-09-25 10:19:50 51°23.72 2°29.757 -999 -999 -999 -999
2009-09-25 10:20:00 51°23.72 2°29.755 -999 -999 -999 -999
2009-09-25 10:20:10 51°23.72 2°29.754 -999 -999 -999 -999
2009-09-25 10:20:20 51°23.72 2°29.752 -999 -999 -999 -999
2009-09-25 10:20:30 51°23.72 2°29.752 -999 -999 -999 -999
2009-09-25 10:20:40 51°23.721 2°29.754 -999 -999 -999 -999
2009-09-25 10:20:50 51°23.725 2°29.759 -999 -999 -999 -999
2009-09-25 10:21:00 51°23.732 2°29.767 -999 -999 -999 -999
2009-09-25 10:21:10 51°23.742 2°29.778 -999 -999 -999 -999
2009-09-25 10:21:20 51°23.754 2°29.79 -999 -999 -999 -999
2009-09-25 10:21:30 51°23.768 2°29.807 -999 -999 -999 -999
2009-09-25 10:21:40 51°23.786 2°29.825 -999 -999 -999 -999
2009-09-25 10:21:50 51°23.803 2°29.849 -999 -999 -999 -999
2009-09-25 10:22:00 51°23.82 2°29.878 -999 -999 -999 -999
2009-09-25 10:22:10 51°23.837 2°29.91 -999 -999 -999 -999
2009-09-25 10:22:20 51°23.852 2°29.945 -999 -999 -999 -999
2009-09-25 10:22:30 51°23.867 2°29.982 -999 -999 -999 -999
2009-09-25 10:22:40 51°23.881 2°30.02 -999 -999 -999 -999
2009-09-25 10:22:50 51°23.895 2°30.059 -999 -999 -999 -999
2009-09-25 10:23:00 51°23.909 2°30.097 -999 -999 -999 -999
2009-09-25 10:23:10 51°23.925 2°30.134 -999 -999 -999 -999
2009-09-25 10:23:20 51°23.941 2°30.17 -999 -999 -999 -999
2009-09-25 10:23:30 51°23.959 2°30.205 -999 -999 -999 -999
2009-09-25 10:23:40 51°23.977 2°30.238 -999 -999 -999 -999
2009-09-25 10:23:50 51°23.996 2°30.271 -999 -999 -999 -999
2009-09-25 10:24:00 51°24.016 2°30.302 -999 -999 -999 -999
2009-09-25 10:24:10 51°24.037 2°30.333 -999 -999 -999 -999
2009-09-25 10:24:20 51°24.057 2°30.364 -999 -999 -999 -999
2009-09-25 10:24:30 51°24.078 2°30.395 -999 -999 -999 -999
2009-09-25 10:24:40 51°24.099 2°30.425 -999 -999 -999 -999
2009-09-25 10:24:50 51°24.12 2°30.455 -999 -999 -999 -999
2009-09-25 10:25:00 51°24.141 2°30.485 -999 -999 -999 -999
2009-09-25 10:25:10 51°24.162 2°30.514 -999 -999 -999 -999
2009-09-25 10:25:20 51°24.183 2°30.543 -999 -999 -999 -999
2009-09-25 10:25:30 51°24.204 2°30.573 -999 -999 -999 -999
2009-09-25 10:25:40 51°24.225 2°30.604 -999 -999 -999 -999
2009-09-25 10:25:50 51°24.246 2°30.635 -999 -999 -999 -999
2009-09-25 10:26:00 51°24.265 2°30.667 -999 -999 -999 -999
2009-09-25 10:26:10 51°24.285 2°30.7 -999 -999 -999 -999
2009-09-25 10:26:20 51°24.303 2°30.733 -999 -999 -999 -999
2009-09-25 10:26:30 51°24.322 2°30.768 -999 -999 -999 -999
2009-09-25 10:26:40 51°24.34 2°30.802 -999 -999 -999 -999
2009-09-25 10:26:50 51°24.358 2°30.837 -999 -999 -999 -999
2009-09-25 10:27:00 51°24.377 2°30.871 -999 -999 -999 -999
2009-09-25 10:27:10 51°24.395 2°30.906 -999 -999 -999 -999
2009-09-25 10:27:20 51°24.413 2°30.94 -999 -999 -999 -999
2009-09-25 10:27:30 51°24.431 2°30.975 -999 -999 -999 -999
2009-09-25 10:27:40 51°24.45 2°31.009 -999 -999 -999 -999
2009-09-25 10:27:50 51°24.468 2°31.043 -999 -999 -999 -999
2009-09-25 10:28:00 51°24.487 2°31.077 -999 -999 -999 -999
2009-09-25 10:28:10 51°24.504 2°31.107 -999 -999 -999 -999
2009-09-25 10:28:20 51°24.523 2°31.141 -999 -999 -999 -999
2009-09-25 10:28:30 51°24.541 2°31.175 -999 -999 -999 -999
2009-09-25 10:28:40 51°24.561 2°31.208 -999 -999 -999 -999
2009-09-25 10:28:50 51°24.58 2°31.242 -999 -999 -999 -999
2009-09-25 10:29:00 51°24.599 2°31.275 -999 -999 -999 -999
2009-09-25 10:29:10 51°24.619 2°31.313 -999 -999 -999 -999
2009-09-25 10:29:20 51°24.638 2°31.347 -999 -999 -999 -999
2009-09-25 10:29:30 51°24.656 2°31.381 -999 -999 -999 -999
2009-09-25 10:29:40 51°24.675 2°31.415 -999 -999 -999 -999
2009-09-25 10:29:50 51°24.692 2°31.445 -999 -999 -999 -999
2009-09-25 10:30:00 51°24.707 2°31.474 -999 -999 -999 -999
2009-09-25 10:30:10 51°24.72 2°31.501 -999 -999 -999 -999
2009-09-25 10:30:20 51°24.731 2°31.527 -999 -999 -999 -999
2009-09-25 10:30:30 51°24.739 2°31.548 -999 -999 -999 -999
2009-09-25 10:30:40 51°24.746 2°31.567 -999 -999 -999 -999
2009-09-25 10:30:50 51°24.752 2°31.583 -999 -999 -999 -999
2009-09-25 10:31:00 51°24.757 2°31.596 -999 -999 -999 -999
2009-09-25 10:31:10 51°24.762 2°31.607 -999 -999 -999 -999
2009-09-25 10:31:20 51°24.768 2°31.616 -999 -999 -999 -999
2009-09-25 10:31:30 51°24.773 2°31.621 -999 -999 -999 -999
2009-09-25 10:31:40 51°24.778 2°31.625 -999 -999 -999 -999
2009-09-25 10:31:50 51°24.783 2°31.627 -999 -999 -999 -999
2009-09-25 10:32:00 51°24.787 2°31.629 -999 -999 -999 -999
2009-09-25 10:32:10 51°24.79 2°31.63 -999 -999 -999 -999
2009-09-25 10:32:20 51°24.793 2°31.63 -999 -999 -999 -999
2009-09-25 10:32:30 51°24.795 2°31.629 -999 -999 -999 -999
2009-09-25 10:32:40 51°24.796 2°31.627 -999 -999 -999 -999
2009-09-25 10:32:50 51°24.797 2°31.625 -999 -999 -999 -999
2009-09-25 10:33:00 51°24.797 2°31.622 -999 -999 -999 -999
2009-09-25 10:33:10 51°24.798 2°31.62 -999 -999 -999 -999
2009-09-25 10:33:20 51°24.798 2°31.617 -999 -999 -999 -999
2009-09-25 10:33:30 51°24.798 2°31.613 -999 -999 -999 -999
2009-09-25 10:33:40 51°24.798 2°31.61 -999 -999 -999 -999
2009-09-25 10:33:50 51°24.798 2°31.607 -999 -999 -999 -999
2009-09-25 10:34:00 51°24.797 2°31.604 -999 -999 -999 -999
2009-09-25 10:34:10 51°24.797 2°31.6 -999 -999 -999 -999
2009-09-25 10:34:20 51°24.796 2°31.597 -999 -999 -999 -999
2009-09-25 10:34:30 51°24.795 2°31.594 -999 -999 -999 -999
2009-09-25 10:34:40 51°24.794 2°31.591 -999 -999 -999 -999
2009-09-25 10:34:50 51°24.793 2°31.587 -999 -999 -999 -999
2009-09-25 10:35:00 51°24.792 2°31.584 -999 -999 -999 -999
2009-09-25 10:35:10 51°24.791 2°31.582 -999 -999 -999 -999
2009-09-25 10:35:20 51°24.79 2°31.578 -999 -999 -999 -999
2009-09-25 10:35:30 51°24.789 2°31.575 -999 -999 -999 -999
2009-09-25 10:35:40 51°24.788 2°31.571 -999 -999 -999 -999
2009-09-25 10:35:50 51°24.786 2°31.568 -999 -999 -999 -999
2009-09-25 10:36:00 51°24.785 2°31.565 -999 -999 -999 -999
2009-09-25 10:36:10 51°24.783 2°31.562 -999 -999 -999 -999
2009-09-25 10:36:20 51°24.782 2°31.558 -999 -999 -999 -999
2009-09-25 10:36:30 51°24.78 2°31.554 -999 -999 -999 -999
2009-09-25 10:36:40 51°24.778 2°31.552 -999 -999 -999 -999
2009-09-25 10:36:50 51°24.776 2°31.548 -999 -999 -999 -999
2009-09-25 10:37:00 51°24.774 2°31.545 -999 -999 -999 -999
2009-09-25 10:37:10 51°24.771 2°31.542 -999 -999 -999 -999
2009-09-25 10:37:20 51°24.769 2°31.539 -999 -999 -999 -999
2009-09-25 10:37:30 51°24.767 2°31.536 -999 -999 -999 -999
2009-09-25 10:37:40 51°24.765 2°31.532 -999 -999 -999 -999
2009-09-25 10:37:50 51°24.763 2°31.529 -999 -999 -999 -999
2009-09-25 10:38:00 51°24.761 2°31.526 -999 -999 -999 -999
2009-09-25 10:38:10 51°24.759 2°31.524 -999 -999 -999 -999
2009-09-25 10:38:20 51°24.756 2°31.521 -999 -999 -999 -999
2009-09-25 10:38:30 51°24.753 2°31.517 -999 -999 -999 -999
2009-09-25 10:38:40 51°24.751 2°31.514 -999 -999 -999 -999
2009-09-25 10:38:50 51°24.749 2°31.511 -999 -999 -999 -999
2009-09-25 10:39:00 51°24.746 2°31.508 -999 -999 -999 -999
2009-09-25 10:39:10 51°24.744 2°31.505 -999 -999 -999 -999
2009-09-25 10:39:20 51°24.741 2°31.501 -999 -999 -999 -999
2009-09-25 10:39:30 51°24.739 2°31.498 -999 -999 -999 -999
2009-09-25 10:39:40 51°24.737 2°31.494 -999 -999 -999 -999
2009-09-25 10:39:50 51°24.734 2°31.491 -999 -999 -999 -999
2009-09-25 10:40:00 51°24.731 2°31.488 -999 -999 -999 -999
2009-09-25 10:40:10 51°24.729 2°31.485 -999 -999 -999 -999
2009-09-25 10:40:20 51°24.726 2°31.481 -999 -999 -999 -999
2009-09-25 10:40:30 51°24.724 2°31.478 -999 -999 -999 -999
2009-09-25 10:40:40 51°24.722 2°31.474 -999 -999 -999 -999
2009-09-25 10:40:50 51°24.719 2°31.47 -999 -999 -999 -999
2009-09-25 10:41:00 51°24.716 2°31.467 -999 -999 -999 -999
2009-09-25 10:41:10 51°24.713 2°31.464 -999 -999 -999 -999
2009-09-25 10:41:20 51°24.71 2°31.46 -999 -999 -999 -999
2009-09-25 10:41:30 51°24.708 2°31.457 -999 -999 -999 -999
2009-09-25 10:41:40 51°24.705 2°31.452 -999 -999 -999 -999
2009-09-25 10:41:50 51°24.702 2°31.449 -999 -999 -999 -999
2009-09-25 10:42:00 51°24.699 2°31.445 -999 -999 -999 -999
2009-09-25 10:42:10 51°24.696 2°31.441 -999 -999 -999 -999
2009-09-25 10:42:20 51°24.693 2°31.437 -999 -999 -999 -999
2009-09-25 10:42:30 51°24.69 2°31.433 -999 -999 -999 -999
2009-09-25 10:42:40 51°24.687 2°31.429 -999 -999 -999 -999
2009-09-25 10:42:50 51°24.684 2°31.425 -999 -999 -999 -999
2009-09-25 10:43:00 51°24.681 2°31.421 -999 -999 -999 -999
2009-09-25 10:43:10 51°24.678 2°31.416 -999 -999 -999 -999
2009-09-25 10:43:20 51°24.675 2°31.412 -999 -999 -999 -999
2009-09-25 10:43:30 51°24.672 2°31.408 -999 -999 -999 -999
2009-09-25 10:43:40 51°24.669 2°31.404 -999 -999 -999 -999
2009-09-25 10:43:50 51°24.666 2°31.4 -999 -999 -999 -999
2009-09-25 10:44:00 51°24.663 2°31.396 -999 -999 -999 -999
2009-09-25 10:44:10 51°24.66 2°31.392 -999 -999 -999 -999
2009-09-25 10:44:20 51°24.657 2°31.387 -999 -999 -999 -999
2009-09-25 10:44:30 51°24.654 2°31.383 -999 -999 -999 -999
2009-09-25 10:44:40 51°24.651 2°31.379 -999 -999 -999 -999
2009-09-25 10:44:50 51°24.648 2°31.375 -999 -999 -999 -999
2009-09-25 10:45:00 51°24.645 2°31.371 -999 -999 -999 -999
2009-09-25 10:45:10 51°24.642 2°31.367 -999 -999 -999 -999
2009-09-25 10:45:20 51°24.639 2°31.362 -999 -999 -999 -999
2009-09-25 10:45:30 51°24.636 2°31.358 -999 -999 -999 -999
2009-09-25 10:45:40 51°24.633 2°31.354 -999 -999 -999 -999
2009-09-25 10:45:50 51°24.63 2°31.35 -999 -999 -999 -999
2009-09-25 10:46:00 51°24.627 2°31.345 -999 -999 -999 -999
2009-09-25 10:46:10 51°24.624 2°31.341 -999 -999 -999 -999
2009-09-25 10:46:20 51°24.621 2°31.337 -999 -999 -999 -999
2009-09-25 10:46:30 51°24.618 2°31.332 -999 -999 -999 -999
2009-09-25 10:46:40 51°24.615 2°31.328 -999 -999 -999 -999